Salina, KS

8:34 PM CDT on October 19, 2017 (GMT -0500)
Salina Municipal

Weather History for KSLN - December, 2014

Change the Weather History Date:

Wednesday, December 3, 2014

  Actual Average Record
Temperature  
Mean Temperature 35 °F 35 °F  
Max Temperature 46 °F 46 °F 70 °F (2013)
Min Temperature 23 °F 25 °F 0 °F (1919)
Degree Days  
Heating Degree Days 30 30  
Month to date heating degree days 108 88  
Since 1 July heating degree days 1105 1040  
Cooling Degree Days 0 0  
Month to date cooling degree days 0 0  
Year to date cooling degree days 1801 1647  
Moisture  
Dew Point 13 °F    
Average Humidity 44    
Maximum Humidity 63    
Minimum Humidity 25    
Precipitation  
Precipitation 0.00 in 0.03 in 1.02 in (1973)
Month to date precipitation 0.00 0.11  
Year to date precipitation 27.11 30.67  
Sea Level Pressure  
Sea Level Pressure 30.29 in    
Wind  
Wind Speed 7 mph (ENE)    
Max Wind Speed 17 mph    
Max Gust Speed 26 mph    
Visibility 10 miles    
Events      
T = Trace of Precipitation, MM = Missing Value Source: NWS Daily Summary

Daily Weather History Graph

Daily Weather History Graph

Search for Another Location

Airport or City:

Trip Planner

Search our weather history database for the weather conditions in past years. The results will help you decide how hot, cold, wet, or windy it might be!

Date:

Astronomy

Dec. 03, 2014 Rise Set
Actual Time 7:31 AM CST 5:08 PM CST
Civil Twilight 7:02 AM CST 5:38 PM CST
Nautical Twilight 6:29 AM CST 6:11 PM CST
Astronomical Twilight 5:57 AM CST 6:43 PM CST
Moon 3:28 PM CST (12/3) 4:22 AM CST (12/3)
Length of Visible Light 10h 36m
Length of Day
9h 37m
Waxing Gibbous, 91% of the Moon is Illuminated
Dec 3
Waxing Gibbous
Dec 6
Full
Dec 14
Last Quarter
Dec 21
New
Dec 28
First Quarter

Hourly Weather History & Observations

Time (CST) Temp. Windchill Dew Point Humidity Pressure Visibility Wind Dir Wind Speed Gust Speed Precip Events Conditions
12:53 AM 26.1 °F - 12.0 °F 55% 30.18 in 10.0 mi Calm Calm - N/A   Clear
1:53 AM 26.1 °F 21.9 °F 12.0 °F 55% 30.20 in 10.0 mi NNW 3.5 mph - N/A   Clear
2:53 AM 25.0 °F - 12.9 °F 60% 30.21 in 10.0 mi Calm Calm - N/A   Clear
3:53 AM 27.0 °F 23.0 °F 14.0 °F 58% 30.23 in 10.0 mi North 3.5 mph - N/A   Clear
4:53 AM 27.0 °F 21.6 °F 15.1 °F 61% 30.25 in 10.0 mi North 4.6 mph - N/A   Clear
5:53 AM 28.9 °F - 15.1 °F 56% 30.28 in 10.0 mi Calm Calm - N/A   Clear
6:53 AM 28.0 °F 24.2 °F 15.1 °F 58% 30.32 in 10.0 mi NNW 3.5 mph - N/A   Clear
7:53 AM 34.0 °F 27.2 °F 14.0 °F 44% 30.34 in 10.0 mi NNE 8.1 mph - N/A   Clear
8:53 AM 36.0 °F 31.1 °F 15.1 °F 43% 30.38 in 10.0 mi NE 5.8 mph - N/A   Clear
9:53 AM 37.9 °F 32.1 °F 14.0 °F 38% 30.40 in 10.0 mi NE 8.1 mph - N/A   Clear
10:53 AM 42.1 °F 34.9 °F 12.0 °F 29% 30.40 in 10.0 mi NE 13.8 mph 19.6 mph N/A   Clear
11:53 AM 43.0 °F 37.2 °F 12.0 °F 28% 30.39 in 10.0 mi ENE 10.4 mph - N/A   Clear
12:53 PM 44.1 °F 38.6 °F 12.0 °F 27% 30.36 in 10.0 mi East 10.4 mph - N/A   Clear
1:53 PM 45.0 °F 39.3 °F 12.0 °F 26% 30.32 in 10.0 mi ENE 11.5 mph - N/A   Clear
2:53 PM 46.0 °F 41.4 °F 12.0 °F 25% 30.30 in 10.0 mi East 9.2 mph - N/A   Clear
3:53 PM 45.0 °F 40.6 °F 12.0 °F 26% 30.30 in 10.0 mi East 8.1 mph - N/A   Clear
4:53 PM 44.1 °F 39.0 °F 12.0 °F 27% 30.27 in 10.0 mi East 9.2 mph - N/A   Clear
5:53 PM 41.0 °F 38.0 °F 12.0 °F 31% 30.27 in 10.0 mi East 4.6 mph - N/A   Clear
6:53 PM 39.0 °F 35.7 °F 12.9 °F 34% 30.28 in 10.0 mi East 4.6 mph - N/A   Clear
7:53 PM 37.9 °F 33.5 °F 14.0 °F 38% 30.29 in 10.0 mi East 5.8 mph - N/A   Clear
8:53 PM 37.0 °F 30.4 °F 12.9 °F 37% 30.27 in 10.0 mi East 9.2 mph - N/A   Clear
9:53 PM 35.1 °F 28.6 °F 12.9 °F 40% 30.26 in 10.0 mi East 8.1 mph - N/A   Clear
10:53 PM 34.0 °F 27.2 °F 14.0 °F 44% 30.24 in 10.0 mi East 8.1 mph - N/A   Overcast
11:53 PM 35.1 °F 27.9 °F 14.0 °F 42% 30.23 in 10.0 mi East 9.2 mph - N/A   Overcast